Time,TemperatureF,DewpointF,PressureIn,WindDirection,WindDirectionDegrees,WindSpeedMPH,WindSpeedGustMPH,Humidity,HourlyPrecipIn,Conditions,Clouds,dailyrainin,SolarRadiationWatts/m^2,SoftwareType,DateUTC
2013-01-21 00:04:00,22.7,11.6,30.50,NNW,340,5.0,6.0,62,0.00,,,0.00,0,Wunderground v.1.15,2013-01-21 06:04:00,
2013-01-21 00:09:00,22.5,11.4,30.50,NNW,328,5.0,6.0,62,0.00,,,0.00,0,Wunderground v.1.15,2013-01-21 06:09:00,
2013-01-21 04:30:00,16.9,11.2,30.53,NW,312,2.0,2.0,78,0.00,,,0.00,0,Wunderground v.1.15,2013-01-21 10:30:00,
2013-01-21 04:35:00,16.8,10.8,30.53,NW,313,2.0,2.0,77,0.00,,,0.00,0,Wunderground v.1.15,2013-01-21 10:35:00,
2013-01-21 04:45:00,16.7,10.7,30.53,NW,311,2.0,3.0,77,0.00,,,0.00,0,Wunderground v.1.15,2013-01-21 10:45:00,
2013-01-21 04:55:00,16.6,10.9,30.53,NW,311,3.0,3.0,78,0.00,,,0.00,0,Wunderground v.1.15,2013-01-21 10:55:00,
2013-01-21 05:05:00,16.6,10.9,30.54,NW,311,2.0,3.0,78,0.00,,,0.00,0,Wunderground v.1.15,2013-01-21 11:05:00,
2013-01-21 05:15:00,16.5,11.1,30.54,NW,311,2.0,3.0,79,0.00,,,0.00,0,Wunderground v.1.15,2013-01-21 11:15:00,
2013-01-21 05:25:00,16.3,10.9,30.54,NW,325,3.0,3.0,79,0.00,,,0.00,0,Wunderground v.1.15,2013-01-21 11:25:00,
2013-01-21 05:35:00,16.2,10.8,30.54,NW,318,3.0,4.0,79,0.00,,,0.00,0,Wunderground v.1.15,2013-01-21 11:35:00,
2013-01-21 05:45:00,16.1,10.7,30.54,NW,317,2.0,4.0,79,0.00,,,0.00,0,Wunderground v.1.15,2013-01-21 11:45:00,
2013-01-21 05:54:00,15.9,10.5,30.53,WNW,287,2.0,2.0,79,0.00,,,0.00,0,Wunderground v.1.15,2013-01-21 11:54:00,
2013-01-21 06:00:00,15.8,10.4,30.53,WNW,290,2.0,2.0,79,0.00,,,0.00,0,Wunderground v.1.15,2013-01-21 12:00:00,
2013-01-21 06:09:00,15.7,10.1,30.53,WNW,290,2.0,2.0,78,0.00,,,0.00,0,Wunderground v.1.15,2013-01-21 12:09:00,
2013-01-21 06:19:00,15.7,10.1,30.52,WNW,290,1.0,1.0,78,0.00,,,0.00,0,Wunderground v.1.15,2013-01-21 12:19:00,
2013-01-21 06:29:00,15.5,9.9,30.53,WNW,290,0.0,0.0,78,0.00,,,0.00,0,Wunderground v.1.15,2013-01-21 12:29:00,
2013-01-21 06:34:00,15.5,9.9,30.52,WNW,290,0.0,0.0,78,0.00,,,0.00,0,Wunderground v.1.15,2013-01-21 12:34:00,
2013-01-21 06:44:00,15.3,9.7,30.53,WNW,290,2.0,2.0,78,0.00,,,0.00,0,Wunderground v.1.15,2013-01-21 12:44:00,
2013-01-21 06:54:00,15.3,9.7,30.54,NW,305,2.0,3.0,78,0.00,,,0.00,0,Wunderground v.1.15,2013-01-21 12:54:00,
2013-01-21 07:04:00,15.2,9.6,30.54,NW,305,2.0,2.0,78,0.00,,,0.00,0,Wunderground v.1.15,2013-01-21 13:04:00,
2013-01-21 07:14:00,15.1,9.5,30.54,NW,306,2.0,2.0,78,0.00,,,0.00,0,Wunderground v.1.15,2013-01-21 13:14:00,
2013-01-21 07:19:00,15.1,9.5,30.54,NW,317,3.0,4.0,78,0.00,,,0.00,0,Wunderground v.1.15,2013-01-21 13:19:00,
2013-01-21 07:29:00,15.1,9.2,30.54,NW,316,3.0,3.0,77,0.00,,,0.00,7,Wunderground v.1.15,2013-01-21 13:29:00,
2013-01-21 07:34:00,15.1,9.2,30.55,NW,315,2.0,3.0,77,0.00,,,0.00,11,Wunderground v.1.15,2013-01-21 13:34:00,
2013-01-21 07:39:00,15.1,9.2,30.55,NW,317,2.0,2.0,77,0.00,,,0.00,12,Wunderground v.1.15,2013-01-21 13:39:00,
2013-01-21 07:49:00,15.2,9.3,30.55,NW,306,3.0,4.0,77,0.00,,,0.00,19,Wunderground v.1.15,2013-01-21 13:49:00,
2013-01-21 07:59:00,15.3,9.4,30.55,NW,306,4.0,4.0,77,0.00,,,0.00,26,Wunderground v.1.15,2013-01-21 13:59:00,
2013-01-21 08:09:00,15.8,9.6,30.55,WNW,284,3.0,7.0,76,0.00,,,0.00,46,Wunderground v.1.15,2013-01-21 14:09:00,
2013-01-21 08:19:00,16.3,9.5,30.55,WNW,297,4.0,4.0,74,0.00,,,0.00,79,Wunderground v.1.15,2013-01-21 14:19:00,
2013-01-21 08:24:00,16.5,9.4,30.55,NNW,329,4.0,4.0,73,0.00,,,0.00,83,Wunderground v.1.15,2013-01-21 14:24:00,
2013-01-21 08:34:00,17.1,9.9,30.55,West,276,4.0,8.0,73,0.00,,,0.00,155,Wunderground v.1.15,2013-01-21 14:34:00,
2013-01-21 08:44:00,17.4,9.9,30.56,NW,309,5.0,6.0,72,0.00,,,0.00,186,Wunderground v.1.15,2013-01-21 14:44:00,
2013-01-21 08:49:00,17.5,10.0,30.56,West,281,6.0,6.0,72,0.00,,,0.00,202,Wunderground v.1.15,2013-01-21 14:49:00,
2013-01-21 08:59:00,17.9,10.4,30.56,NW,320,6.0,6.0,72,0.00,,,0.00,230,Wunderground v.1.15,2013-01-21 14:59:00,
2013-01-21 09:09:00,18.2,10.4,30.56,NW,305,7.0,7.0,71,0.00,,,0.00,288,Wunderground v.1.15,2013-01-21 15:09:00,
2013-01-21 09:19:00,18.7,10.5,30.56,WNW,298,8.0,8.0,70,0.00,,,0.00,192,Wunderground v.1.15,2013-01-21 15:19:00,
2013-01-21 09:29:00,18.8,10.9,30.56,NW,321,7.0,7.0,71,0.00,,,0.00,206,Wunderground v.1.15,2013-01-21 15:29:00,
2013-01-21 09:39:00,18.8,10.9,30.56,NNW,344,8.0,8.0,71,0.00,,,0.00,156,Wunderground v.1.15,2013-01-21 15:39:00,
2013-01-21 09:49:00,19.1,11.2,30.56,NW,318,6.0,9.0,71,0.00,,,0.00,188,Wunderground v.1.15,2013-01-21 15:49:00,
2013-01-21 09:54:00,19.2,11.0,30.57,WNW,298,8.0,9.0,70,0.00,,,0.00,195,Wunderground v.1.15,2013-01-21 15:54:00,
2013-01-21 10:04:00,19.1,10.9,30.57,WNW,295,8.0,8.0,70,0.00,,,0.00,188,Wunderground v.1.15,2013-01-21 16:04:00,
2013-01-21 10:14:00,19.3,11.1,30.57,NNW,329,7.0,8.0,70,0.00,,,0.00,234,Wunderground v.1.15,2013-01-21 16:14:00,
2013-01-21 10:19:00,19.8,11.6,30.57,NNW,327,8.0,8.0,70,0.00,,,0.00,229,Wunderground v.1.15,2013-01-21 16:19:00,
2013-01-21 10:29:00,20.0,11.1,30.58,NW,323,8.0,8.0,68,0.00,,,0.00,214,Wunderground v.1.15,2013-01-21 16:29:00,
2013-01-21 10:39:00,20.2,11.0,30.57,WNW,301,7.0,9.0,67,0.00,,,0.00,243,Wunderground v.1.15,2013-01-21 16:39:00,
2013-01-21 10:49:00,20.4,10.1,30.58,WNW,297,8.0,12.0,64,0.00,,,0.00,218,Wunderground v.1.15,2013-01-21 16:49:00,
2013-01-21 10:54:00,20.4,9.8,30.58,NNW,337,9.0,12.0,63,0.00,,,0.00,225,Wunderground v.1.15,2013-01-21 16:54:00,
2013-01-21 11:04:00,20.4,9.8,30.57,NW,313,8.0,11.0,63,0.00,,,0.00,380,Wunderground v.1.15,2013-01-21 17:04:00,
2013-01-21 11:14:00,20.7,10.1,30.57,NW,311,8.0,9.0,63,0.00,,,0.00,308,Wunderground v.1.15,2013-01-21 17:14:00,
2013-01-21 11:19:00,21.2,10.6,30.57,WNW,300,7.0,8.0,63,0.00,,,0.00,329,Wunderground v.1.15,2013-01-21 17:19:00,
2013-01-21 11:29:00,21.2,10.6,30.57,NNW,333,8.0,8.0,63,0.00,,,0.00,471,Wunderground v.1.15,2013-01-21 17:29:00,
2013-01-21 11:34:00,21.5,10.1,30.57,West,281,8.0,8.0,61,0.00,,,0.00,550,Wunderground v.1.15,2013-01-21 17:34:00,
2013-01-21 11:44:00,21.6,10.6,30.56,NNW,328,8.0,9.0,62,0.00,,,0.00,577,Wunderground v.1.15,2013-01-21 17:44:00,
2013-01-21 11:55:00,21.6,8.3,30.56,WNW,292,9.0,11.0,56,0.00,,,0.00,304,Wunderground v.1.15,2013-01-21 17:55:00,
2013-01-21 12:05:00,21.6,7.1,30.56,North,350,10.0,12.0,53,0.00,,,0.00,610,Wunderground v.1.15,2013-01-21 18:05:00,
2013-01-21 12:15:00,22.6,8.0,30.56,WSW,257,8.0,9.0,53,0.00,,,0.00,694,Wunderground v.1.15,2013-01-21 18:15:00,
2013-01-21 12:25:00,22.5,6.2,30.56,NW,304,9.0,12.0,49,0.00,,,0.00,348,Wunderground v.1.15,2013-01-21 18:25:00,
2013-01-21 12:30:00,22.1,6.3,30.55,West,265,8.0,9.0,50,0.00,,,0.00,555,Wunderground v.1.15,2013-01-21 18:30:00,
2013-01-21 12:39:00,22.5,5.7,30.55,North,355,7.0,7.0,48,0.00,,,0.00,464,Wunderground v.1.15,2013-01-21 18:39:00,
2013-01-21 12:45:00,22.4,5.2,30.54,NW,306,7.0,7.0,47,0.00,,,0.00,573,Wunderground v.1.15,2013-01-21 18:45:00,
2013-01-21 12:50:00,22.4,6.1,30.54,WNW,296,8.0,8.0,49,0.00,,,0.00,513,Wunderground v.1.15,2013-01-21 18:50:00,
2013-01-21 13:00:00,22.7,5.5,30.53,NNW,339,8.0,8.0,47,0.00,,,0.00,835,Wunderground v.1.15,2013-01-21 19:00:00,
2013-01-21 13:10:00,22.6,3.9,30.53,NW,325,9.0,9.0,44,0.00,,,0.00,287,Wunderground v.1.15,2013-01-21 19:10:00,
2013-01-21 13:20:00,22.5,3.3,30.53,NW,305,8.0,8.0,43,0.00,,,0.00,332,Wunderground v.1.15,2013-01-21 19:20:00,
2013-01-21 13:29:00,22.4,4.2,30.53,NNW,342,6.0,10.0,45,0.00,,,0.00,269,Wunderground v.1.15,2013-01-21 19:29:00,
2013-01-21 13:35:00,22.2,3.1,30.53,NNW,339,8.0,10.0,43,0.00,,,0.00,248,Wunderground v.1.15,2013-01-21 19:35:00,
2013-01-21 13:45:00,22.1,4.0,30.53,NNW,348,7.0,11.0,45,0.00,,,0.00,237,Wunderground v.1.15,2013-01-21 19:45:00,
2013-01-21 13:55:00,22.0,2.9,30.53,WNW,293,8.0,8.0,43,0.00,,,0.00,346,Wunderground v.1.15,2013-01-21 19:55:00,
2013-01-21 14:04:00,22.7,2.5,30.54,NW,320,7.0,8.0,41,0.00,,,0.00,315,Wunderground v.1.15,2013-01-21 20:04:00,
2013-01-21 14:10:00,22.5,1.8,30.54,NNE,13,8.0,8.0,40,0.00,,,0.00,218,Wunderground v.1.15,2013-01-21 20:10:00,
2013-01-21 14:19:00,22.4,2.2,30.53,NW,311,8.0,8.0,41,0.00,,,0.00,522,Wunderground v.1.15,2013-01-21 20:19:00,
2013-01-21 14:29:00,22.9,2.1,30.53,NW,317,8.0,8.0,40,0.00,,,0.00,564,Wunderground v.1.15,2013-01-21 20:29:00,
2013-01-21 14:34:00,23.4,3.1,30.53,WNW,301,8.0,8.0,41,0.00,,,0.00,617,Wunderground v.1.15,2013-01-21 20:34:00,
2013-01-21 14:44:00,23.3,2.5,30.54,West,277,9.0,12.0,40,0.00,,,0.00,313,Wunderground v.1.15,2013-01-21 20:44:00,
2013-01-21 14:49:00,23.1,2.3,30.54,NNW,342,8.0,9.0,40,0.00,,,0.00,237,Wunderground v.1.15,2013-01-21 20:49:00,
2013-01-21 14:59:00,22.5,1.2,30.54,NW,309,8.0,10.0,39,0.00,,,0.00,190,Wunderground v.1.15,2013-01-21 20:59:00,
2013-01-21 15:09:00,22.3,1.6,30.54,North,350,7.0,7.0,40,0.00,,,0.00,172,Wunderground v.1.15,2013-01-21 21:09:00,
2013-01-21 15:19:00,22.2,2.0,30.54,NW,322,7.0,7.0,41,0.00,,,0.00,142,Wunderground v.1.15,2013-01-21 21:19:00,
2013-01-21 15:24:00,21.9,1.2,30.54,NW,314,8.0,11.0,40,0.00,,,0.00,132,Wunderground v.1.15,2013-01-21 21:24:00,
2013-01-21 15:34:00,21.8,1.7,30.53,NNW,334,6.0,7.0,41,0.00,,,0.00,109,Wunderground v.1.15,2013-01-21 21:34:00,
2013-01-21 15:44:00,21.5,1.9,30.53,NW,315,6.0,7.0,42,0.00,,,0.00,104,Wunderground v.1.15,2013-01-21 21:44:00,
2013-01-21 15:54:00,21.2,1.6,30.53,NNW,334,6.0,9.0,42,0.00,,,0.00,76,Wunderground v.1.15,2013-01-21 21:54:00,
2013-01-21 16:04:00,20.9,1.4,30.53,NNW,345,6.0,6.0,42,0.00,,,0.00,77,Wunderground v.1.15,2013-01-21 22:04:00,
2013-01-21 16:09:00,20.8,1.8,30.54,NW,311,6.0,7.0,43,0.00,,,0.00,72,Wunderground v.1.15,2013-01-21 22:09:00,
2013-01-21 16:19:00,20.6,1.6,30.53,North,360,5.0,5.0,43,0.00,,,0.00,70,Wunderground v.1.15,2013-01-21 22:19:00,
2013-01-21 16:24:00,20.6,1.1,30.53,North,355,6.0,6.0,42,0.00,,,0.00,62,Wunderground v.1.15,2013-01-21 22:24:00,
2013-01-21 16:34:00,20.3,0.8,30.53,NW,321,6.0,8.0,42,0.00,,,0.00,37,Wunderground v.1.15,2013-01-21 22:34:00,
2013-01-21 16:44:00,20.3,1.3,30.53,NNW,338,4.0,5.0,43,0.00,,,0.00,25,Wunderground v.1.15,2013-01-21 22:44:00,
2013-01-21 16:54:00,20.1,1.6,30.53,North,5,5.0,8.0,44,0.00,,,0.00,25,Wunderground v.1.15,2013-01-21 22:54:00,
2013-01-21 16:59:00,20.0,1.5,30.53,North,5,6.0,6.0,44,0.00,,,0.00,23,Wunderground v.1.15,2013-01-21 22:59:00,
2013-01-21 17:09:00,19.6,0.2,30.53,NNW,331,5.0,5.0,42,0.00,,,0.00,9,Wunderground v.1.15,2013-01-21 23:09:00,
2013-01-21 17:19:00,19.2,0.3,30.53,North,355,6.0,6.0,43,0.00,,,0.00,0,Wunderground v.1.15,2013-01-21 23:19:00,
2013-01-21 17:29:00,19.0,0.1,30.53,NW,318,6.0,6.0,43,0.00,,,0.00,0,Wunderground v.1.15,2013-01-21 23:29:00,
2013-01-21 17:34:00,18.9,0.1,30.53,NNW,338,5.0,6.0,43,0.00,,,0.00,0,Wunderground v.1.15,2013-01-21 23:34:00,
2013-01-21 17:44:00,18.8,0.5,30.54,NW,323,5.0,7.0,44,0.00,,,0.00,0,Wunderground v.1.15,2013-01-21 23:44:00,
2013-01-21 17:54:00,18.6,0.7,30.53,NW,321,4.0,5.0,45,0.00,,,0.00,0,Wunderground v.1.15,2013-01-21 23:54:00,
2013-01-21 18:04:00,18.5,0.2,30.54,North,5,5.0,5.0,44,0.00,,,0.00,0,Wunderground v.1.15,2013-01-22 00:04:00,
2013-01-21 18:09:00,18.4,1.0,30.53,NNW,337,4.0,6.0,46,0.00,,,0.00,0,Wunderground v.1.15,2013-01-22 00:09:00,
2013-01-21 18:19:00,18.2,0.4,30.53,NW,309,5.0,5.0,45,0.00,,,0.00,0,Wunderground v.1.15,2013-01-22 00:19:00,
2013-01-21 18:29:00,18.1,0.8,30.53,North,350,4.0,5.0,46,0.00,,,0.00,0,Wunderground v.1.15,2013-01-22 00:29:00,
2013-01-21 18:39:00,18.0,0.2,30.54,NNW,339,5.0,5.0,45,0.00,,,0.00,0,Wunderground v.1.15,2013-01-22 00:39:00,
2013-01-21 18:44:00,18.0,0.7,30.54,North,5,5.0,5.0,46,0.00,,,0.00,0,Wunderground v.1.15,2013-01-22 00:44:00,
2013-01-21 18:54:00,18.0,1.1,30.54,NNW,338,3.0,4.0,47,0.00,,,0.00,0,Wunderground v.1.15,2013-01-22 00:54:00,
2013-01-21 18:59:00,17.9,1.0,30.54,NNW,340,4.0,4.0,47,0.00,,,0.00,0,Wunderground v.1.15,2013-01-22 00:59:00,
2013-01-21 19:09:00,17.7,0.9,30.54,North,355,4.0,4.0,47,0.00,,,0.00,0,Wunderground v.1.15,2013-01-22 01:09:00,
2013-01-21 19:19:00,17.7,1.3,30.53,North,5,3.0,6.0,48,0.00,,,0.00,0,Wunderground v.1.15,2013-01-22 01:19:00,
2013-01-21 19:29:00,17.7,1.3,30.53,NNW,331,3.0,5.0,48,0.00,,,0.00,0,Wunderground v.1.15,2013-01-22 01:29:00,
2013-01-21 19:39:00,17.6,1.2,30.54,North,5,4.0,4.0,48,0.00,,,0.00,0,Wunderground v.1.15,2013-01-22 01:39:00,
2013-01-21 19:44:00,17.6,1.2,30.53,NNE,26,4.0,4.0,48,0.00,,,0.00,0,Wunderground v.1.15,2013-01-22 01:44:00,
2013-01-21 19:55:00,17.5,1.6,30.54,NNW,332,4.0,8.0,49,0.00,,,0.00,0,Wunderground v.1.15,2013-01-22 01:55:00,
2013-01-21 20:00:00,17.5,1.6,30.54,NNE,13,4.0,4.0,49,0.00,,,0.00,0,Wunderground v.1.15,2013-01-22 02:00:00,
2013-01-21 20:10:00,17.4,1.9,30.54,North,5,4.0,5.0,50,0.00,,,0.00,0,Wunderground v.1.15,2013-01-22 02:10:00,
2013-01-21 20:20:00,17.3,1.8,30.54,North,360,4.0,4.0,50,0.00,,,0.00,0,Wunderground v.1.15,2013-01-22 02:20:00,
2013-01-21 20:30:00,17.2,1.7,30.54,NNE,22,4.0,5.0,50,0.00,,,0.00,0,Wunderground v.1.15,2013-01-22 02:30:00,
2013-01-21 20:35:00,17.2,1.7,30.54,North,355,4.0,5.0,50,0.00,,,0.00,0,Wunderground v.1.15,2013-01-22 02:35:00,
2013-01-21 20:45:00,17.1,1.6,30.54,NE,56,5.0,8.0,50,0.00,,,0.00,0,Wunderground v.1.15,2013-01-22 02:45:00,
2013-01-21 20:55:00,17.1,2.1,30.54,NNE,13,5.0,5.0,51,0.00,,,0.00,0,Wunderground v.1.15,2013-01-22 02:55:00,
2013-01-21 21:05:00,17.1,2.1,30.55,WNW,297,3.0,4.0,51,0.00,,,0.00,0,Wunderground v.1.15,2013-01-22 03:05:00,
2013-01-21 21:10:00,17.2,2.6,30.55,NW,319,3.0,3.0,52,0.00,,,0.00,0,Wunderground v.1.15,2013-01-22 03:10:00,
2013-01-21 21:20:00,17.1,2.5,30.55,North,9,3.0,5.0,52,0.00,,,0.00,0,Wunderground v.1.15,2013-01-22 03:20:00,
2013-01-21 21:30:00,17.0,2.4,30.55,NNW,346,4.0,4.0,52,0.00,,,0.00,0,Wunderground v.1.15,2013-01-22 03:30:00,
2013-01-21 21:40:00,17.0,2.4,30.55,North,355,5.0,6.0,52,0.00,,,0.00,0,Wunderground v.1.15,2013-01-22 03:40:00,
2013-01-21 21:49:00,17.0,2.4,30.54,NNE,13,4.0,4.0,52,0.00,,,0.00,0,Wunderground v.1.15,2013-01-22 03:49:00,
2013-01-21 21:59:00,17.0,2.4,30.55,NNW,346,4.0,4.0,52,0.00,,,0.00,0,Wunderground v.1.15,2013-01-22 03:59:00,
2013-01-21 22:09:00,17.0,2.8,30.55,NNW,336,4.0,4.0,53,0.00,,,0.00,0,Wunderground v.1.15,2013-01-22 04:09:00,
2013-01-21 22:15:00,16.9,2.3,30.55,NNE,15,4.0,4.0,52,0.00,,,0.00,0,Wunderground v.1.15,2013-01-22 04:15:00,
2013-01-21 22:24:00,17.0,2.8,30.55,NNE,18,3.0,4.0,53,0.00,,,0.00,0,Wunderground v.1.15,2013-01-22 04:24:00,
2013-01-21 22:34:00,17.0,2.4,30.55,NNE,15,3.0,3.0,52,0.00,,,0.00,0,Wunderground v.1.15,2013-01-22 04:34:00,
2013-01-21 22:39:00,17.0,2.4,30.55,NE,43,3.0,4.0,52,0.00,,,0.00,0,Wunderground v.1.15,2013-01-22 04:39:00,
2013-01-21 22:49:00,16.9,2.3,30.55,North,11,3.0,3.0,52,0.00,,,0.00,0,Wunderground v.1.15,2013-01-22 04:49:00,
2013-01-21 22:59:00,16.9,2.3,30.55,North,11,3.0,4.0,52,0.00,,,0.00,0,Wunderground v.1.15,2013-01-22 04:59:00,
2013-01-21 23:04:00,17.0,2.4,30.55,NNW,336,3.0,5.0,52,0.00,,,0.00,0,Wunderground v.1.15,2013-01-22 05:04:00,
2013-01-21 23:09:00,16.9,2.3,30.55,NNE,25,3.0,4.0,52,0.00,,,0.00,0,Wunderground v.1.15,2013-01-22 05:09:00,
2013-01-21 23:14:00,16.9,2.3,30.55,North,355,3.0,4.0,52,0.00,,,0.00,0,Wunderground v.1.15,2013-01-22 05:14:00,
2013-01-21 23:19:00,16.9,2.3,30.55,NNE,26,4.0,4.0,52,0.00,,,0.00,0,Wunderground v.1.15,2013-01-22 05:19:00,
2013-01-21 23:24:00,16.9,2.3,30.55,North,355,4.0,4.0,52,0.00,,,0.00,0,Wunderground v.1.15,2013-01-22 05:24:00,
2013-01-21 23:29:00,16.9,2.3,30.54,NNE,30,3.0,3.0,52,0.00,,,0.00,0,Wunderground v.1.15,2013-01-22 05:29:00,
2013-01-21 23:34:00,16.9,2.3,30.54,North,10,3.0,4.0,52,0.00,,,0.00,0,Wunderground v.1.15,2013-01-22 05:34:00,
2013-01-21 23:44:00,16.8,2.2,30.54,NE,40,4.0,4.0,52,0.00,,,0.00,0,Wunderground v.1.15,2013-01-22 05:44:00,
2013-01-21 23:49:00,16.8,2.2,30.54,NNE,28,3.0,3.0,52,0.00,,,0.00,0,Wunderground v.1.15,2013-01-22 05:49:00,
2013-01-21 23:59:00,16.8,2.2,30.54,NNE,23,3.0,4.0,52,0.00,,,0.00,0,Wunderground v.1.15,2013-01-22 05:59:00,